Retour au catalogue

STARLINK-4305

ActifCommunicationsSSO
NORAD 53060·PAYLOAD·🇺🇸 United States

Lancé Jul 11, 2022 depuis Vandenberg Space Force Base

Loading…

Prochains Passages (prochaines 24 heures)

TLE

FraisSource: CelesTrak SupGP

Époque: Sep 14, 2026, 21:19 UTC

1 53060C 22077T   26257.88868056  .00081111  00000+0  25178-2 0  2576
2 53060  97.2854  72.8027 0001533  97.6301 209.2102 15.33399164    16

Suivez STARLINK-4305 en temps réel avec AllMySat

Download on the App Store